Time,TemperatureF,DewpointF,PressureIn,WindDirection,WindDirectionDegrees,WindSpeedMPH,WindSpeedGustMPH,Humidity,HourlyPrecipIn,Conditions,Clouds,dailyrainin,SoftwareType,DateUTC
2013-06-02 00:04:00,70.7,67.0,30.09,South,176,0.0,0.0,88,0.00,,,0.00,weatherlink.com 1.10,2013-06-02 04:04:00,
2013-06-02 00:19:00,70.3,67.0,30.08,South,176,0.0,0.0,88,0.00,,,0.00,weatherlink.com 1.10,2013-06-02 04:19:00,
2013-06-02 00:34:00,69.9,67.0,30.07,South,176,0.0,0.0,89,0.00,,,0.00,weatherlink.com 1.10,2013-06-02 04:34:00,
2013-06-02 00:49:00,69.8,67.0,30.07,South,176,0.0,0.0,90,0.00,,,0.00,weatherlink.com 1.10,2013-06-02 04:49:00,
2013-06-02 01:04:00,69.9,67.0,30.07,South,189,0.0,1.0,90,0.00,,,0.00,weatherlink.com 1.10,2013-06-02 05:04:00,
2013-06-02 01:19:00,69.9,67.0,30.06,WNW,303,0.0,2.0,90,0.00,,,0.00,weatherlink.com 1.10,2013-06-02 05:19:00,
2013-06-02 01:34:00,69.8,67.0,30.06,NW,311,0.0,1.0,90,0.00,,,0.00,weatherlink.com 1.10,2013-06-02 05:34:00,
2013-06-02 01:49:00,69.5,67.0,30.06,NW,311,0.0,1.0,91,0.00,,,0.00,weatherlink.com 1.10,2013-06-02 05:49:00,
2013-06-02 02:04:00,69.1,67.0,30.05,NW,311,0.0,0.0,92,0.00,,,0.00,weatherlink.com 1.10,2013-06-02 06:04:00,
2013-06-02 02:19:00,68.8,67.0,30.05,NW,311,0.0,0.0,93,0.00,,,0.00,weatherlink.com 1.10,2013-06-02 06:19:00,
2013-06-02 02:35:00,68.7,67.0,30.05,NW,311,0.0,1.0,94,0.00,,,0.00,weatherlink.com 1.10,2013-06-02 06:35:00,
2013-06-02 02:50:00,68.7,67.0,30.04,NW,311,0.0,1.0,94,0.00,,,0.00,weatherlink.com 1.10,2013-06-02 06:50:00,
2013-06-02 03:05:00,68.8,67.0,30.04,NW,311,0.0,1.0,94,0.00,,,0.00,weatherlink.com 1.10,2013-06-02 07:05:00,
2013-06-02 03:20:00,68.9,67.0,30.04,NW,311,0.0,1.0,94,0.00,,,0.00,weatherlink.com 1.10,2013-06-02 07:20:00,
2013-06-02 03:35:00,68.8,67.0,30.04,NW,311,0.0,1.0,94,0.00,,,0.00,weatherlink.com 1.10,2013-06-02 07:35:00,
2013-06-02 03:50:00,68.7,67.0,30.04,NW,311,0.0,1.0,94,0.00,,,0.00,weatherlink.com 1.10,2013-06-02 07:50:00,
2013-06-02 04:05:00,68.5,67.0,30.04,NW,311,0.0,1.0,94,0.00,,,0.00,weatherlink.com 1.10,2013-06-02 08:05:00,
2013-06-02 04:20:00,68.4,67.0,30.04,North,360,0.0,1.0,95,0.00,,,0.00,weatherlink.com 1.10,2013-06-02 08:20:00,
2013-06-02 04:35:00,68.5,67.0,30.04,West,279,0.0,2.0,95,0.00,,,0.00,weatherlink.com 1.10,2013-06-02 08:35:00,
2013-06-02 04:50:00,68.9,67.0,30.04,SSE,159,0.0,3.0,94,0.00,,,0.00,weatherlink.com 1.10,2013-06-02 08:50:00,
2013-06-02 05:05:00,69.1,67.0,30.03,South,189,1.0,4.0,94,0.00,,,0.00,weatherlink.com 1.10,2013-06-02 09:05:00,
2013-06-02 05:20:00,69.2,68.0,30.03,South,180,0.0,4.0,94,0.00,,,0.00,weatherlink.com 1.10,2013-06-02 09:20:00,
2013-06-02 05:35:00,69.2,68.0,30.03,South,173,0.0,4.0,94,0.00,,,0.00,weatherlink.com 1.10,2013-06-02 09:35:00,
2013-06-02 05:50:00,68.9,67.0,30.03,SSW,192,0.0,3.0,94,0.00,,,0.00,weatherlink.com 1.10,2013-06-02 09:50:00,
2013-06-02 06:05:00,68.6,67.0,30.03,SSE,166,0.0,1.0,94,0.00,,,0.00,weatherlink.com 1.10,2013-06-02 10:05:00,
2013-06-02 06:20:00,68.5,67.0,30.03,South,171,1.0,2.0,95,0.00,,,0.00,weatherlink.com 1.10,2013-06-02 10:20:00,
2013-06-02 06:35:00,68.7,67.0,30.03,South,182,0.0,3.0,95,0.00,,,0.00,weatherlink.com 1.10,2013-06-02 10:35:00,
2013-06-02 06:50:00,69.3,68.0,30.03,SE,132,3.0,3.0,95,0.00,,,0.00,weatherlink.com 1.10,2013-06-02 10:50:00,
2013-06-02 07:05:00,70.1,68.0,30.04,South,178,1.0,4.0,94,0.00,,,0.00,weatherlink.com 1.10,2013-06-02 11:05:00,
2013-06-02 07:20:00,71.1,68.0,30.04,East,92,0.0,6.0,91,0.00,,,0.00,weatherlink.com 1.10,2013-06-02 11:20:00,
2013-06-02 07:35:00,71.9,69.0,30.03,SSW,213,1.0,6.0,89,0.00,,,0.00,weatherlink.com 1.10,2013-06-02 11:35:00,
2013-06-02 07:50:00,73.6,69.0,30.03,SSW,194,1.0,6.0,86,0.00,,,0.00,weatherlink.com 1.10,2013-06-02 11:50:00,
2013-06-02 08:05:00,74.4,69.0,30.03,North,351,0.0,5.0,84,0.00,,,0.00,weatherlink.com 1.10,2013-06-02 12:05:00,
2013-06-02 08:20:00,75.7,70.0,30.02,South,190,4.0,6.0,81,0.00,,,0.00,weatherlink.com 1.10,2013-06-02 12:20:00,
2013-06-02 08:35:00,77.2,70.0,30.02,ESE,116,2.0,7.0,77,0.00,,,0.00,weatherlink.com 1.10,2013-06-02 12:35:00,
2013-06-02 08:50:00,77.5,69.0,30.02,East,92,1.0,7.0,76,0.00,,,0.00,weatherlink.com 1.10,2013-06-02 12:50:00,
2013-06-02 09:05:00,77.3,70.0,30.01,SE,136,4.0,8.0,77,0.00,,,0.00,weatherlink.com 1.10,2013-06-02 13:05:00,
2013-06-02 09:20:00,77.3,70.0,30.01,SSW,205,5.0,7.0,78,0.00,,,0.00,weatherlink.com 1.10,2013-06-02 13:20:00,
2013-06-02 09:35:00,79.2,71.0,30.00,South,183,0.0,6.0,75,0.00,,,0.00,weatherlink.com 1.10,2013-06-02 13:35:00,
2013-06-02 09:50:00,81.1,70.0,30.00,SW,223,0.0,6.0,70,0.00,,,0.00,weatherlink.com 1.10,2013-06-02 13:50:00,
2013-06-02 10:05:00,81.2,70.0,30.00,SSW,196,1.0,7.0,69,0.00,,,0.00,weatherlink.com 1.10,2013-06-02 14:05:00,
2013-06-02 10:20:00,82.1,71.0,30.00,West,261,3.0,6.0,69,0.00,,,0.00,weatherlink.com 1.10,2013-06-02 14:20:00,
2013-06-02 10:35:00,82.8,70.0,30.00,SE,141,1.0,8.0,66,0.00,,,0.00,weatherlink.com 1.10,2013-06-02 14:35:00,
2013-06-02 10:50:00,83.4,70.0,30.00,WSW,243,2.0,7.0,65,0.00,,,0.00,weatherlink.com 1.10,2013-06-02 14:50:00,
2013-06-02 11:05:00,84.8,70.0,29.99,SSW,194,2.0,8.0,62,0.00,,,0.00,weatherlink.com 1.10,2013-06-02 15:05:00,
2013-06-02 11:20:00,85.0,70.0,29.99,East,82,5.0,6.0,61,0.00,,,0.00,weatherlink.com 1.10,2013-06-02 15:20:00,
2013-06-02 11:35:00,85.5,70.0,29.99,South,189,2.0,6.0,61,0.00,,,0.00,weatherlink.com 1.10,2013-06-02 15:35:00,
2013-06-02 11:50:00,85.7,70.0,29.99,SSE,160,0.0,7.0,59,0.00,,,0.00,weatherlink.com 1.10,2013-06-02 15:50:00,
2013-06-02 12:05:00,85.4,70.0,29.99,SSW,210,6.0,9.0,61,0.00,,,0.00,weatherlink.com 1.10,2013-06-02 16:05:00,
2013-06-02 12:20:00,86.6,72.0,29.99,SSW,197,2.0,7.0,61,0.00,,,0.00,weatherlink.com 1.10,2013-06-02 16:20:00,
2013-06-02 12:35:00,86.4,71.0,29.98,NW,304,4.0,10.0,60,0.00,,,0.00,weatherlink.com 1.10,2013-06-02 16:35:00,
2013-06-02 12:50:00,86.6,70.0,29.98,SW,236,3.0,10.0,58,0.00,,,0.00,weatherlink.com 1.10,2013-06-02 16:50:00,
2013-06-02 13:05:00,87.3,71.0,29.97,SSE,155,3.0,9.0,58,0.00,,,0.00,weatherlink.com 1.10,2013-06-02 17:05:00,
2013-06-02 13:20:00,87.7,71.0,29.96,South,186,5.0,7.0,57,0.00,,,0.00,weatherlink.com 1.10,2013-06-02 17:20:00,
2013-06-02 13:35:00,86.5,70.0,29.96,South,189,4.0,8.0,59,0.00,,,0.00,weatherlink.com 1.10,2013-06-02 17:35:00,
2013-06-02 13:50:00,86.2,71.0,29.95,SSW,207,4.0,10.0,60,0.00,,,0.00,weatherlink.com 1.10,2013-06-02 17:50:00,
2013-06-02 14:05:00,87.2,71.0,29.96,WSW,243,5.0,7.0,59,0.00,,,0.00,weatherlink.com 1.10,2013-06-02 18:05:00,
2013-06-02 14:20:00,86.5,71.0,29.95,WSW,252,2.0,7.0,61,0.00,,,0.00,weatherlink.com 1.10,2013-06-02 18:20:00,
2013-06-02 14:35:00,85.4,71.0,29.95,SSW,205,2.0,9.0,63,0.00,,,0.00,weatherlink.com 1.10,2013-06-02 18:35:00,
2013-06-02 14:51:00,85.2,71.0,29.95,SSW,199,4.0,7.0,63,0.00,,,0.00,weatherlink.com 1.10,2013-06-02 18:51:00,
2013-06-02 15:06:00,86.3,71.0,29.94,South,186,2.0,9.0,61,0.00,,,0.00,weatherlink.com 1.10,2013-06-02 19:06:00,
2013-06-02 15:21:00,87.0,71.0,29.94,SE,146,6.0,8.0,59,0.00,,,0.00,weatherlink.com 1.10,2013-06-02 19:21:00,
2013-06-02 15:36:00,86.8,70.0,29.94,WSW,250,4.0,7.0,58,0.00,,,0.00,weatherlink.com 1.10,2013-06-02 19:36:00,
2013-06-02 15:51:00,86.7,71.0,29.94,South,185,1.0,9.0,59,0.00,,,0.00,weatherlink.com 1.10,2013-06-02 19:51:00,
2013-06-02 16:06:00,85.9,70.0,29.94,SW,217,2.0,7.0,60,0.00,,,0.00,weatherlink.com 1.10,2013-06-02 20:06:00,
2013-06-02 16:21:00,85.5,69.0,29.94,ESE,107,2.0,7.0,59,0.00,,,0.00,weatherlink.com 1.10,2013-06-02 20:21:00,
2013-06-02 16:36:00,86.1,70.0,29.93,South,171,7.0,9.0,58,0.00,,,0.00,weatherlink.com 1.10,2013-06-02 20:36:00,
2013-06-02 16:51:00,86.7,70.0,29.93,SE,124,4.0,5.0,57,0.00,,,0.00,weatherlink.com 1.10,2013-06-02 20:51:00,
2013-06-02 17:06:00,85.4,69.0,29.93,ENE,74,2.0,4.0,59,0.00,,,0.00,weatherlink.com 1.10,2013-06-02 21:06:00,
2013-06-02 17:21:00,84.8,69.0,29.93,SSW,207,0.0,6.0,60,0.00,,,0.00,weatherlink.com 1.10,2013-06-02 21:21:00,
2013-06-02 17:36:00,83.6,69.0,29.93,SSW,201,1.0,7.0,61,0.00,,,0.00,weatherlink.com 1.10,2013-06-02 21:36:00,
2013-06-02 17:51:00,83.5,70.0,29.94,NE,41,3.0,6.0,64,0.00,,,0.00,weatherlink.com 1.10,2013-06-02 21:51:00,
2013-06-02 18:06:00,83.2,68.0,29.94,WSW,239,0.0,6.0,61,0.00,,,0.00,weatherlink.com 1.10,2013-06-02 22:06:00,
2013-06-02 18:21:00,82.8,68.0,29.94,South,190,3.0,6.0,61,0.00,,,0.00,weatherlink.com 1.10,2013-06-02 22:21:00,
2013-06-02 18:36:00,81.8,67.0,29.94,NE,49,1.0,9.0,62,0.00,,,0.00,weatherlink.com 1.10,2013-06-02 22:36:00,
2013-06-02 18:51:00,81.1,67.0,29.94,ESE,109,0.0,8.0,63,0.00,,,0.00,weatherlink.com 1.10,2013-06-02 22:51:00,
2013-06-02 19:06:00,80.5,67.0,29.95,SE,131,2.0,8.0,64,0.00,,,0.00,weatherlink.com 1.10,2013-06-02 23:06:00,
2013-06-02 19:21:00,79.7,68.0,29.95,NNE,32,4.0,7.0,67,0.00,,,0.00,weatherlink.com 1.10,2013-06-02 23:21:00,
2013-06-02 19:36:00,79.3,68.0,29.95,ESE,119,1.0,5.0,68,0.00,,,0.00,weatherlink.com 1.10,2013-06-02 23:36:00,
2013-06-02 19:51:00,78.7,68.0,29.95,SE,138,1.0,7.0,70,0.00,,,0.00,weatherlink.com 1.10,2013-06-02 23:51:00,
2013-06-02 20:06:00,78.3,68.0,29.96,SW,215,2.0,8.0,70,0.00,,,0.00,weatherlink.com 1.10,2013-06-03 00:06:00,
2013-06-02 20:21:00,78.1,68.0,29.97,SSW,198,2.0,6.0,71,0.00,,,0.00,weatherlink.com 1.10,2013-06-03 00:21:00,
2013-06-02 20:36:00,77.8,68.0,29.97,ENE,74,2.0,6.0,72,0.00,,,0.00,weatherlink.com 1.10,2013-06-03 00:36:00,
2013-06-02 20:51:00,77.3,68.0,29.97,East,86,2.0,5.0,73,0.00,,,0.00,weatherlink.com 1.10,2013-06-03 00:51:00,
2013-06-02 21:06:00,76.7,67.0,29.97,SSW,192,0.0,8.0,73,0.00,,,0.00,weatherlink.com 1.10,2013-06-03 01:06:00,
2013-06-02 21:21:00,76.3,67.0,29.98,SW,235,2.0,6.0,74,0.00,,,0.00,weatherlink.com 1.10,2013-06-03 01:21:00,
2013-06-02 21:36:00,75.4,67.0,29.98,West,279,0.0,3.0,76,0.00,,,0.00,weatherlink.com 1.10,2013-06-03 01:36:00,
2013-06-02 21:51:00,74.6,67.0,29.98,SW,236,0.0,2.0,77,0.00,,,0.00,weatherlink.com 1.10,2013-06-03 01:51:00,
2013-06-02 22:06:00,73.8,67.0,29.99,SW,236,0.0,2.0,79,0.00,,,0.00,weatherlink.com 1.10,2013-06-03 02:06:00,
2013-06-02 22:21:00,73.1,67.0,29.99,SW,236,1.0,2.0,81,0.00,,,0.00,weatherlink.com 1.10,2013-06-03 02:21:00,
2013-06-02 22:36:00,72.4,67.0,29.99,SW,236,1.0,1.0,82,0.00,,,0.00,weatherlink.com 1.10,2013-06-03 02:36:00,
2013-06-02 22:51:00,72.2,67.0,29.98,West,277,0.0,1.0,83,0.00,,,0.00,weatherlink.com 1.10,2013-06-03 02:51:00,
2013-06-02 23:06:00,71.9,67.0,29.98,West,277,1.0,2.0,83,0.00,,,0.00,weatherlink.com 1.10,2013-06-03 03:06:00,
2013-06-02 23:21:00,72.1,67.0,29.98,West,269,0.0,3.0,83,0.00,,,0.00,weatherlink.com 1.10,2013-06-03 03:21:00,
2013-06-02 23:51:00,72.3,67.0,29.98,SE,140,0.0,1.0,83,0.00,,,0.00,weatherlink.com 1.10,2013-06-03 03:51:00,